Retour au catalogue

MARCOPOLO 2 R/B

PAM-D

ActifGTO
NORAD 20764·ROCKET BODY·🇺🇸 United States

Lancé Aug 18, 1990 depuis Cape Canaveral Space Force Station

Loading…

TLE

PériméSource: Space-Track

Époque: Sep 13, 2026, 22:25 UTC

1 20764U 90074C   26256.93417685 -.00000084  00000-0  64125-3 0  9997
2 20764  20.7813 214.6509 7254279 160.6532 256.3137  2.18683518285732

Suivez MARCOPOLO 2 R/B en temps réel avec AllMySat

Download on the App Store